Livermore, CA

1:02 AM PDT on July 28, 2017 (GMT -0700)
Livermore Municipal

Weather History for KLVK - July, 2012

Change the Weather History Date:

Tuesday, July 17, 2012

  Actual Average Record
Temperature  
Mean Temperature 66 °F 73 °F  
Max Temperature 75 °F 88 °F 109 °F (1988)
Min Temperature 56 °F 57 °F 46 °F (1936)
Degree Days  
Heating Degree Days 0 0  
Month to date heating degree days 0 0  
Since 1 June heating degree days 37 32  
Since 1 July heating degree days 0 0  
Cooling Degree Days 1 8  
Month to date cooling degree days 104 122  
Year to date cooling degree days 314 285  
Since 1 June cooling degree days 240 232  
Growing Degree Days 16 (Base 50)    
Moisture  
Dew Point 49 °F    
Average Humidity 58    
Maximum Humidity 72    
Minimum Humidity 44    
Precipitation  
Precipitation 0.00 in 0.00 in 0.00 in (2017)
Month to date precipitation T 0.00  
Year to date precipitation 7.06 9.90  
Since 1 July precipitation T  
Sea Level Pressure  
Sea Level Pressure 29.94 in    
Wind  
Wind Speed 10 mph (West)    
Max Wind Speed 18 mph    
Max Gust Speed 22 mph    
Visibility 10 miles    
Events      
T = Trace of Precipitation, MM = Missing Value Source: NWS Daily Summary

Daily Weather History Graph

Daily Weather History Graph

Search for Another Location

Airport or City:

Trip Planner

Search our weather history database for the weather conditions in past years. The results will help you decide how hot, cold, wet, or windy it might be!

Date:

Astronomy

Jul. 17, 2012 Rise Set
Actual Time 5:59 AM PDT 8:27 PM PDT
Civil Twilight 5:29 AM PDT 8:57 PM PDT
Nautical Twilight 4:51 AM PDT 9:34 PM PDT
Astronomical Twilight 4:10 AM PDT 10:15 PM PDT
Moon 4:41 AM PDT (7/17) 7:21 PM PDT (7/17)
Length of Visible Light 15h 28m
Length of Day
14h 27m
Waning Crescent, 2% of the Moon is Illuminated
Jul 17
Waning Crescent
Jul 18
New
Jul 26
First Quarter
Aug 1
Full
Aug 9
Last Quarter

Hourly Weather History & Observations

Time (PDT) Temp. Dew Point Humidity Pressure Visibility Wind Dir Wind Speed Gust Speed Precip Events Conditions
12:53 AM 59.0 °F 50.0 °F 72% 29.91 in 10.0 mi WSW 12.7 mph - N/A   Overcast
1:53 AM 59.0 °F 48.9 °F 69% 29.91 in 10.0 mi SW 8.1 mph - N/A   Overcast
2:53 AM 59.0 °F 48.9 °F 69% 29.90 in 10.0 mi SW 10.4 mph - N/A   Overcast
3:53 AM 59.0 °F 48.9 °F 69% 29.90 in 10.0 mi WSW 9.2 mph - N/A   Overcast
4:53 AM 59.0 °F 48.9 °F 69% 29.90 in 10.0 mi WSW 9.2 mph - N/A   Overcast
5:53 AM 59.0 °F 48.9 °F 69% 29.91 in 10.0 mi SW 9.2 mph - N/A   Overcast
6:53 AM 59.0 °F 48.0 °F 67% 29.93 in 10.0 mi WSW 10.4 mph - N/A   Overcast
7:53 AM 59.0 °F 48.0 °F 67% 29.95 in 10.0 mi WSW 5.8 mph - N/A   Overcast
8:53 AM 60.1 °F 48.0 °F 64% 29.96 in 10.0 mi SW 5.8 mph - N/A   Overcast
9:53 AM 62.1 °F 48.0 °F 60% 29.96 in 10.0 mi WSW 10.4 mph - N/A   Overcast
10:53 AM 66.9 °F 48.0 °F 51% 29.96 in 10.0 mi WSW 13.8 mph 17.3 mph N/A   Scattered Clouds
11:53 AM 68.0 °F 46.9 °F 47% 29.96 in 10.0 mi West 9.2 mph - N/A   Scattered Clouds
12:53 PM 71.1 °F 48.9 °F 45% 29.96 in 10.0 mi NW 11.5 mph 17.3 mph N/A   Partly Cloudy
1:53 PM 72.0 °F 48.9 °F 44% 29.95 in 10.0 mi WNW 6.9 mph 16.1 mph N/A   Mostly Cloudy
2:53 PM 73.0 °F 50.0 °F 44% 29.94 in 10.0 mi West 10.4 mph 20.7 mph N/A   Partly Cloudy
3:53 PM 73.9 °F 50.0 °F 43% 29.93 in 10.0 mi WNW 11.5 mph 16.1 mph N/A   Clear
4:53 PM 73.0 °F 50.0 °F 44% 29.93 in 10.0 mi WNW 12.7 mph 19.6 mph N/A   Clear
5:53 PM 70.0 °F 50.0 °F 49% 29.92 in 10.0 mi WNW 17.3 mph - N/A   Clear
6:53 PM 66.9 °F 50.0 °F 54% 29.93 in 10.0 mi West 13.8 mph - N/A   Clear
7:53 PM 64.0 °F 50.0 °F 60% 29.94 in 10.0 mi West 15.0 mph - N/A   Clear
8:53 PM 62.1 °F 50.0 °F 65% 29.96 in 10.0 mi NW 9.2 mph - N/A   Clear
9:53 PM 60.1 °F 50.0 °F 69% 29.98 in 10.0 mi WNW 8.1 mph - N/A   Clear
10:53 PM 57.9 °F 48.9 °F 72% 29.99 in 10.0 mi NW 5.8 mph - N/A   Clear